Time,TemperatureF,DewpointF,PressureIn,WindDirection,WindDirectionDegrees,WindSpeedMPH,WindSpeedGustMPH,Humidity,HourlyPrecipIn,Conditions,Clouds,dailyrainin,SolarRadiationWatts/m^2,SoftwareType,DateUTC
2017-02-27 00:09:00,57.0,29.0,30.21,ESE,114,2.0,8.0,34,-99.99,,,-99.99,0.000000,,2017-02-27 06:09:00,
2017-02-27 00:28:00,57.0,29.0,30.21,SE,138,3.0,11.0,34,-99.99,,,-99.99,0.000000,,2017-02-27 06:28:00,
2017-02-27 01:09:00,57.0,30.0,30.21,SSE,160,1.0,11.0,35,-99.99,,,-99.99,0.000000,,2017-02-27 07:09:00,
2017-02-27 01:28:00,57.0,30.0,30.21,South,170,2.0,8.0,36,-99.99,,,-99.99,0.000000,,2017-02-27 07:28:00,
2017-02-27 01:48:00,57.0,30.0,30.20,SE,134,3.0,11.0,36,-99.99,,,-99.99,0.000000,,2017-02-27 07:48:00,
2017-02-27 02:08:00,56.0,29.0,30.20,SW,224,2.0,9.0,36,-99.99,,,-99.99,0.000000,,2017-02-27 08:08:00,
2017-02-27 02:27:00,57.0,30.0,30.20,SE,144,2.0,10.0,35,-99.99,,,-99.99,0.000000,,2017-02-27 08:27:00,
2017-02-27 03:09:00,57.0,29.0,30.20,ESE,109,1.0,10.0,34,-99.99,,,-99.99,0.000000,,2017-02-27 09:09:00,
2017-02-27 03:28:00,56.0,28.0,30.20,South,173,2.0,7.0,34,-99.99,,,-99.99,0.000000,,2017-02-27 09:28:00,
2017-02-27 03:48:00,56.0,29.0,30.21,South,184,0.0,9.0,35,-99.99,,,-99.99,0.000000,,2017-02-27 09:48:00,
2017-02-27 04:09:00,56.0,29.0,30.22,South,189,4.0,11.0,36,-99.99,,,-99.99,0.000000,,2017-02-27 10:09:00,
2017-02-27 04:28:00,55.0,29.0,30.22,SSW,198,2.0,9.0,36,-99.99,,,-99.99,0.000000,,2017-02-27 10:28:00,
2017-02-27 04:48:00,55.0,29.0,30.21,ESE,119,1.0,8.0,37,-99.99,,,-99.99,0.000000,,2017-02-27 10:48:00,
2017-02-27 05:09:00,55.0,29.0,30.18,WSW,247,2.0,11.0,37,-99.99,,,-99.99,0.000000,,2017-02-27 11:09:00,
2017-02-27 05:28:00,54.0,28.0,30.18,South,173,1.0,12.0,37,-99.99,,,-99.99,0.000000,,2017-02-27 11:28:00,
2017-02-27 05:48:00,54.0,29.0,30.18,ESE,121,2.0,8.0,38,-99.99,,,-99.99,0.000000,,2017-02-27 11:48:00,
2017-02-27 06:08:00,55.0,29.0,30.20,North,350,2.0,5.0,37,-99.99,,,-99.99,0.000000,,2017-02-27 12:08:00,
2017-02-27 06:28:00,55.0,31.0,30.21,SSW,198,0.0,5.0,39,-99.99,,,-99.99,0.000000,,2017-02-27 12:28:00,
2017-02-27 06:49:00,55.0,30.0,30.19,East,101,1.0,3.0,38,-99.99,,,-99.99,0.000000,,2017-02-27 12:49:00,
2017-02-27 07:09:00,55.0,31.0,30.23,NW,322,1.0,4.0,39,-99.99,,,-99.99,5.000000,,2017-02-27 13:09:00,
2017-02-27 07:28:00,53.0,41.0,30.22,East,95,2.0,4.0,64,-99.99,,,-99.99,0.000000,,2017-02-27 13:28:00,
2017-02-27 08:27:00,46.0,44.0,30.26,ESE,117,0.0,6.0,91,-99.99,,,-99.99,14.000000,,2017-02-27 14:27:00,
2017-02-27 08:50:00,46.0,43.0,30.34,NW,311,2.0,9.0,89,-99.99,,,-99.99,21.000000,,2017-02-27 14:50:00,
2017-02-27 09:09:00,47.0,44.0,30.38,NW,313,2.0,5.0,89,-99.99,,,-99.99,21.000000,,2017-02-27 15:09:00,
2017-02-27 09:39:00,47.0,45.0,30.37,SE,125,0.0,7.0,92,-99.99,,,-99.99,11.000000,,2017-02-27 15:39:00,
2017-02-27 10:09:00,47.0,45.0,30.32,SW,224,0.0,7.0,94,-99.99,,,-99.99,39.000000,,2017-02-27 16:09:00,
2017-02-27 10:27:00,47.0,46.0,30.32,SE,125,0.0,-999.0,95,-99.99,,,-99.99,,,2017-02-27 16:27:00,
2017-02-27 11:03:00,48.0,47.0,30.31,South,183,1.0,4.0,95,-99.99,,,-99.99,25.000000,,2017-02-27 17:03:00,
2017-02-27 11:20:00,48.0,47.0,30.29,SE,128,3.0,11.0,96,-99.99,,,-99.99,54.000000,,2017-02-27 17:20:00,
2017-02-27 11:38:00,48.0,47.0,30.29,WSW,252,3.0,8.0,95,-99.99,,,-99.99,132.000000,,2017-02-27 17:38:00,
2017-02-27 12:09:00,49.0,48.0,30.29,SSE,161,0.0,8.0,95,-99.99,,,-99.99,70.000000,,2017-02-27 18:09:00,
2017-02-27 12:28:00,50.0,49.0,30.28,ESE,106,0.0,3.0,96,-99.99,,,-99.99,306.000000,,2017-02-27 18:28:00,